This demonstration page uses our WeatherBlox Daily Observations layout. Learn more.

Left ArrowRight Arrow

Hourly Observations for December 20, 2016

Temp ( °F °C ) Dew Point ( °F °C ) Humidity (%) Winds ( mph kmh ) Pressure ( in mb ) Visibility ( mi km ) Precip ( " mm )
12:51 am 00:51 Clear 45 7.2 22 -5.6 40 40 SE 8 13 30.35 1028 10 16 N/A
1:51 am 01:51 Clear 46 7.8 22 -5.6 38 38 SE 9 15 30.35 1028 10 16 N/A
2:51 am 02:51 Clear 45 7.2 23 -5 42 42 SE 10 17 30.35 1028 10 16 N/A
3:51 am 03:51 Clear 44 6.7 24 -4.4 45 45 SE 9 15 30.35 1028 10 16 N/A
4:51 am 04:51 Clear 45 7.2 26 -3.3 48 48 SE 13 20 30.35 1028 10 16 N/A
5:51 am 05:51 Clear 42 5.6 27 -2.8 55 55 ESE 10 17 30.37 1028 10 16 N/A
6:51 am 06:51 Clear 41 5 23 -5 49 49 ESE 9 15 30.39 1029 10 16 N/A
7:51 am 07:51 Sunny 42 5.6 22 -5.6 45 45 SE 12 19 30.41 1030 10 16 N/A
8:51 am 08:51 Sunny 47 8.3 24 -4.4 41 41 SE 13 20 30.40 1030 10 16 N/A
9:51 am 09:51 Sunny 52 11.1 24 -4.4 34 34 ESE 12 19 30.40 1030 10 16 N/A
10:51 am 10:51 Sunny 55 12.8 24 -4.4 30 30 SE 15 24 30.37 1028 10 16 N/A
11:51 am 11:51 Sunny 58 14.4 24 -4.4 27 27 SSE 9 15 30.31 1026 10 16 N/A
12:51 pm 12:51 Sunny 60 15.6 22 -5.6 23 23 S 8 13 30.28 1025 10 16 N/A
1:51 pm 13:51 Sunny 62 16.7 23 -5 22 22 SE 8 13 30.24 1024 10 16 N/A
2:51 pm 14:51 Sunny 62 16.7 22 -5.6 21 21 S 6 9 30.22 1023 10 16 N/A
3:51 pm 15:51 Sunny 62 16.7 22 -5.6 21 21 SSE 7 11 30.20 1023 10 16 N/A
4:51 pm 16:51 Sunny 59 15 24 -4.4 26 26 S 6 9 30.19 1023 10 16 N/A
5:51 pm 17:51 Clear 55 12.8 25 -3.9 31 31 ESE 5 7 30.22 1023 10 16 N/A
6:51 pm 18:51 Clear 51 10.6 26 -3.3 38 38 E 8 13 30.23 1024 10 16 N/A
7:51 pm 19:51 Clear 51 10.6 28 -2.2 41 41 E 9 15 30.22 1023 10 16 N/A
8:51 pm 20:51 Clear 51 10.6 29 -1.7 43 43 E 9 15 30.22 1023 10 16 N/A
9:51 pm 21:51 Clear 52 11.1 30 -1.1 43 43 SSE 5 7 30.20 1023 10 16 N/A
10:51 pm 22:51 Cloudy 54 12.2 30 -1.1 40 40 SE 6 9 30.20 1023 10 16 N/A
11:51 pm 23:51 Mostly Clear 55 12.8 30 -1.1 38 38 ESE 9 15 30.17 1022 10 16 N/A

Powered by AerisWeather